FENGYUN 1C DEB

Satellite information

Favourite Embed

Satellite Type and Status

DEBRISIN ORBIT

Key statistics

Satellite FENGYUN 1C DEB at a glance.

Uptime

9661

Days in orbit

Revolutions

≈ 13.9

Per day

Orbit

SSO

Sun Synchronous Orbit

Inclination

98.6

Latest

Satellite identification and parameters

Extended collection of information and parameters for FENGYUN 1C DEB.

Object identification

Identified? True

Debris? True

Object name: FENGYUN 1C DEB

International designator: 1999-025AHF

Object number (NORAD): 30493

Object ID (CCSDS): 30493

Country: PEOPLES REPUBLIC OF CHINA (PRC)

Current information (Y/N): Y

RCS size: SMALL

Orbital parameters

Period: 103.416 minutes

Inclination: 98.5772 deg

SMA: 7298.243 km

Apoapsis: 1053.937 km

Periapsis: 786.279 km

RAAN: 127.6976 deg

Eccentricy: 0.01833719

Argument of periapsis: 2.9855 deg

Mean anomaly: 26.4106 deg

Mean motion: 13.92436185 rev/day

Mean motion (dot): 0.00003685 rev/day2

B* drag term: 0.0025221469 1/REarth

Two-line elements (TLE)

Creation date: Oct. 20, 2025, 6:08 p.m.

Reference frame: TEME

Reference center: EARTH

Epoch: Oct. 20, 2025, 11:33 a.m. UTC

TLE line 0: 0 FENGYUN 1C DEB

TLE line 1: 1 30493U 99025AHF 25293.48140163 .00003685 00000-0 25221-2 0 9998

TLE line 2: 2 30493 98.5772 127.6976 0183372 2.9855 26.4106 13.92436185943546

Live tracking on map

Real-time ground track for satellite FENGYUN 1C DEB.

In-orbit conjunctions

A list of the most updated potential collisions computed for object FENGYUN 1C DEB.

Target Orbit TCA Probability of collision Miss distance Type
FENGYUN 1C DEB SSO 2025-10-03 12:42:12 0.000164497 126.0 (m) DEBRIS
ADEOS 2 SSO 2025-09-30 03:42:27 0.0001841654 836.0 (m) PAYLOAD
DELTA 1 DEB SSO 2025-06-21 10:49:46 0.0004558853 98.0 (m) DEBRIS
FENGYUN 1C DEB SSO 2024-11-12 12:37:54 0.0003670151 501.0 (m) DEBRIS
CZ-6A DEB LEO 2024-11-09 05:20:13 0.0002030874 451.0 (m) DEBRIS

Associated space launch

Chinese polar orbiting meteorological satellite

FENGYUN 1C DEB was lifted into orbit during the mission ‘Long March 4B | Feng Yun 1C’, on board a Long March 4B space rocket.

The launch took place on May 10, 1999, 1:33 a.m. from Launch Complex 7.

For more information about the launch, click the button.

Launch to space Long March 4B | Feng Yun 1C
Long March 4B | Feng Yun 1C

Agency: N/A

Status: Launch Successful

Launch date: May 10, 1999, 1:33 a.m. UTC

Rocket: Long March 4B

Launch pad: Launch Complex 7

Location: Taiyuan Satellite Launch Center, People's Republic of China

...

Latest news about this satellite

There are no fresh news available about this satellite. Check back as we update our databases every day.


Newsletter sign-up

Weekly statistics, charts and insights to help you stay on top of the space industry.